Zurück zum Katalog

CZ-6A DEB

AktivPO
NORAD 61153·DEBRIS·🇨🇳 China

Gestartet Aug 6, 2024 von Taiyuan Satellite Launch Center

Loading…

Nächste Überflüge (nächste 24 Stunden)

TLE

AktuellSource: Space-Track

Epoche: Sep 14, 2026, 11:30 UTC

1 61153U 24140QX  26257.47934566  .00000778  00000-0  33965-3 0  9994
2 61153  88.9978 264.5344 0040064 270.0119  89.6482 14.22554337107077

Verfolge CZ-6A DEB in Echtzeit mit AllMySat

Download on the App Store